Provincetown, MA

5:38 AM EDT on August 25, 2016 (GMT -0400)
Provincetown Municipal

Weather History for KPVC - October, 2011

Change the Weather History Date:

Tuesday, October 25, 2011

  Actual Average Record
Temperature  
Mean Temperature 56 °F -  
Max Temperature 59 °F 55 °F 68 °F (2001)
Min Temperature 53 °F 43 °F 24 °F (2003)
Degree Days  
Heating Degree Days 9    
Growing Degree Days 6 (Base 50)    
Moisture  
Dew Point 43 °F    
Average Humidity 65    
Maximum Humidity 82    
Minimum Humidity 47    
Precipitation  
Precipitation 0.00 in - - ()
Sea Level Pressure  
Sea Level Pressure 29.89 in    
Wind  
Wind Speed 13 mph (WNW)    
Max Wind Speed 22 mph    
Max Gust Speed 30 mph    
Visibility 10 miles    
Events      
Averages and records for this station are not official NWS values.
T = Trace of Precipitation, MM = Missing Value Source: NWS Daily Summary

Daily Weather History Graph

Daily Weather History Graph

Search for Another Location

Airport or City:

Trip Planner

Search our weather history database for the weather conditions in past years. The results will help you decide how hot, cold, wet, or windy it might be!

Date:

Astronomy

Oct. 25, 2011 Rise Set
Actual Time 7:04 AM EDT 5:44 PM EDT
Civil Twilight 6:36 AM EDT 6:13 PM EDT
Nautical Twilight 6:03 AM EDT 6:45 PM EDT
Astronomical Twilight 5:31 AM EDT 7:18 PM EDT
Moon 5:32 AM EDT 4:44 PM EDT
Length of Visible Light 11h 36m
Length of Day
10h 39m
Waning Crescent, 2% of the Moon is Illuminated
Oct 25
Waning Crescent
Oct 26
New
Nov 2
First Quarter
Nov 10
Full
Nov 18
Last Quarter

Hourly Weather History & Observations

Time (EDT) Temp. Dew Point Humidity Pressure Visibility Wind Dir Wind Speed Gust Speed Precip Events Conditions
12:15 AM 55.4 °F 48.2 °F 77% 29.94 in 10.0 mi WSW 9.2 mph - N/A   Overcast
12:35 AM 55.4 °F 48.2 °F 77% 29.93 in 10.0 mi WSW 9.2 mph - N/A   Overcast
12:55 AM 55.4 °F 48.2 °F 77% 29.93 in 10.0 mi WSW 9.2 mph - N/A   Overcast
1:15 AM 55.4 °F 48.2 °F 77% 29.92 in 10.0 mi WSW 10.4 mph - N/A   Overcast
1:35 AM 55.4 °F 48.2 °F 77% 29.92 in 10.0 mi West 10.4 mph - N/A   Overcast
1:56 AM 55.4 °F 48.2 °F 77% 29.92 in 10.0 mi West 9.2 mph - N/A   Overcast
2:15 AM 55.4 °F 48.2 °F 77% 29.91 in 10.0 mi West 11.5 mph - N/A   Overcast
2:35 AM 55.4 °F 50.0 °F 82% 29.91 in 10.0 mi West 10.4 mph 17.3 mph N/A   Overcast
3:15 AM 53.6 °F 48.2 °F 82% 29.90 in 10.0 mi West 10.4 mph - N/A   Overcast
3:35 AM 53.6 °F 48.2 °F 82% 29.89 in 10.0 mi WNW 11.5 mph 16.1 mph N/A   Overcast
3:55 AM 53.6 °F 48.2 °F 82% 29.89 in 10.0 mi WNW 8.1 mph - N/A   Overcast
4:15 AM 53.6 °F 48.2 °F 82% 29.89 in 10.0 mi West 8.1 mph - N/A   Overcast
4:35 AM 53.6 °F 48.2 °F 82% 29.89 in 10.0 mi West 5.8 mph - N/A   Overcast
4:55 AM 53.6 °F 48.2 °F 82% 29.89 in 10.0 mi West 10.4 mph - N/A   Overcast
5:15 AM 53.6 °F 48.2 °F 82% 29.89 in 10.0 mi WNW 12.7 mph 17.3 mph N/A   Overcast
5:35 AM 53.6 °F 46.4 °F 77% 29.88 in 10.0 mi WNW 12.7 mph 17.3 mph N/A   Overcast
5:55 AM 53.6 °F 46.4 °F 77% 29.88 in 10.0 mi WNW 16.1 mph 20.7 mph N/A   Overcast
6:15 AM 53.6 °F 44.6 °F 72% 29.88 in 10.0 mi WNW 15.0 mph 20.7 mph N/A   Mostly Cloudy
6:35 AM 53.6 °F 44.6 °F 72% 29.88 in 10.0 mi WNW 15.0 mph - N/A   Clear
6:55 AM 53.6 °F 44.6 °F 72% 29.88 in 10.0 mi WNW 13.8 mph 20.7 mph N/A   Clear
7:15 AM 53.6 °F 44.6 °F 72% 29.89 in 10.0 mi WNW 15.0 mph 21.9 mph N/A   Clear
7:35 AM 53.6 °F 44.6 °F 72% 29.89 in 10.0 mi WNW 15.0 mph 19.6 mph N/A   Clear
7:55 AM 53.6 °F 44.6 °F 72% 29.90 in 10.0 mi WNW 13.8 mph 21.9 mph N/A   Clear
8:15 AM 53.6 °F 44.6 °F 72% 29.90 in 10.0 mi WNW 17.3 mph 21.9 mph N/A   Clear
8:35 AM 53.6 °F 44.6 °F 72% 29.90 in 10.0 mi WNW 16.1 mph 23.0 mph N/A   Clear
8:55 AM 53.6 °F 42.8 °F 67% 29.90 in 10.0 mi WNW 18.4 mph 24.2 mph N/A   Clear
9:15 AM 55.4 °F 42.8 °F 63% 29.90 in 10.0 mi WNW 17.3 mph 25.3 mph N/A   Clear
9:35 AM 55.4 °F 42.8 °F 63% 29.90 in 10.0 mi WNW 19.6 mph 26.5 mph N/A   Clear
9:55 AM 55.4 °F 42.8 °F 63% 29.90 in 10.0 mi WNW 18.4 mph 26.5 mph N/A   Clear
10:15 AM 55.4 °F 42.8 °F 63% 29.89 in 10.0 mi NW 19.6 mph 26.5 mph N/A   Clear
10:35 AM 55.4 °F 42.8 °F 63% 29.89 in 10.0 mi NW 19.6 mph 28.8 mph N/A   Clear
10:55 AM 55.4 °F 42.8 °F 63% 29.89 in 10.0 mi NW 20.7 mph 28.8 mph N/A   Clear
11:15 AM 57.2 °F 42.8 °F 59% 29.89 in 10.0 mi NW 20.7 mph 26.5 mph N/A   Clear
11:35 AM 57.2 °F 42.8 °F 59% 29.88 in 10.0 mi WNW 21.9 mph 29.9 mph N/A   Clear
11:56 AM 57.2 °F 42.8 °F 59% 29.88 in 10.0 mi WNW 20.7 mph 27.6 mph N/A   Clear
12:35 PM 57.2 °F 42.8 °F 59% 29.86 in 10.0 mi NW 20.7 mph 27.6 mph N/A   Clear
12:55 PM 57.2 °F 41.0 °F 55% 29.85 in 10.0 mi WNW 18.4 mph 28.8 mph N/A   Clear
1:15 PM 59.0 °F 41.0 °F 51% 29.85 in 10.0 mi WNW 18.4 mph 26.5 mph N/A   Clear
1:35 PM 59.0 °F 39.2 °F 48% 29.84 in 10.0 mi NW 17.3 mph 24.2 mph N/A   Clear
1:55 PM 59.0 °F 41.0 °F 51% 29.85 in 10.0 mi WNW 18.4 mph 24.2 mph N/A   Clear
2:35 PM 59.0 °F 39.2 °F 48% 29.85 in 10.0 mi WNW 16.1 mph 24.2 mph N/A   Clear
2:55 PM 59.0 °F 39.2 °F 48% 29.85 in 10.0 mi WNW 15.0 mph 20.7 mph N/A   Partly Cloudy
3:15 PM 57.2 °F 41.0 °F 55% 29.85 in 10.0 mi NW 12.7 mph - N/A   Scattered Clouds
3:35 PM 57.2 °F 39.2 °F 51% 29.85 in 10.0 mi WNW 16.1 mph 21.9 mph N/A   Scattered Clouds
4:35 PM 57.2 °F 37.4 °F 48% 29.86 in 10.0 mi WNW 18.4 mph 26.5 mph N/A   Clear
4:55 PM 57.2 °F 37.4 °F 48% 29.87 in 10.0 mi NW 18.4 mph 26.5 mph N/A   Clear
5:35 PM 55.4 °F 35.6 °F 47% 29.88 in 10.0 mi NW 16.1 mph 24.2 mph N/A   Clear
5:55 PM 55.4 °F 37.4 °F 51% 29.88 in 10.0 mi NW 16.1 mph 24.2 mph N/A   Clear
6:15 PM 55.4 °F 39.2 °F 54% 29.89 in 10.0 mi NW 13.8 mph - N/A   Clear
6:35 PM 55.4 °F 37.4 °F 51% 29.91 in 10.0 mi NW 16.1 mph 21.9 mph N/A   Clear
7:15 PM 55.4 °F 35.6 °F 47% 29.92 in 10.0 mi NW 19.6 mph 29.9 mph N/A   Scattered Clouds
7:35 PM 55.4 °F 35.6 °F 47% 29.92 in 10.0 mi NW 21.9 mph 27.6 mph N/A   Partly Cloudy
7:55 PM 55.4 °F 35.6 °F 47% 29.92 in 10.0 mi NW 17.3 mph 27.6 mph N/A   Clear
8:15 PM 55.4 °F 37.4 °F 51% 29.93 in 10.0 mi NW 20.7 mph 26.5 mph N/A   Clear
9:15 PM 55.4 °F 35.6 °F 47% 29.94 in 10.0 mi NW 20.7 mph 27.6 mph N/A   Clear
9:35 PM 53.6 °F 35.6 °F 51% 29.94 in 10.0 mi NW 21.9 mph 31.1 mph N/A   Clear
9:55 PM 53.6 °F 35.6 °F 51% 29.95 in 10.0 mi NW 24.2 mph 29.9 mph N/A   Clear
10:15 PM 53.6 °F 35.6 °F 51% 29.95 in 10.0 mi NNW 19.6 mph 29.9 mph N/A   Clear
10:35 PM 53.6 °F 35.6 °F 51% 29.96 in 10.0 mi NW 21.9 mph 28.8 mph N/A   Clear
10:55 PM 51.8 °F 35.6 °F 54% 29.96 in 10.0 mi NNW 18.4 mph 28.8 mph N/A   Clear
11:35 PM 51.8 °F 33.8 °F 50% 29.96 in 10.0 mi NNW 17.3 mph 24.2 mph N/A   Clear